Location: Bartshausen
(51.8454°N, 9.8167°E)
Time: 05:51:40
(UTC+00:00)

CENTAUR R/B - Pass Details

Date: 08 November 2025
Orbit: 633 x 1547 km, 63.4° (Epoch: 11 December)

Event Time Altitude Azimuth Distance (km) Brightness Sun altitude
Exits shadow 03:52:10 22° 323° (NW) 2,344 4.2 -24.1°
Maximum altitude 03:56:39 41° 20° (NNE) 1,802 4.0 -23.4°
Drops below altitude 10° 04:04:56 10° 88° (E) 3,591 6.6 -22.2°
Sets 04:08:21 0° 95° (E) 4,643 7.5 -21.6°
